{"data":{"norad_id":58363,"epoch":"2026-05-25T02:25:53.759424Z","epoch_age_seconds":66527,"freshness":"FRESH","line1":"1 58363U 23177N   26145.10131666  .00002879  00000+0  11407-3 0  9998","line2":"2 58363  43.0043 279.0643 0002517 253.5110 106.5466 15.27590593139911","mean_motion":15.27590593,"eccentricity":0.0002517,"inclination_deg":43.0043,"raan_deg":279.0643,"arg_perigee_deg":253.511,"mean_anomaly_deg":106.5466,"bstar":0.00011407,"rev_number":13991,"period_min":94.266095025632,"perigee_km":481.29042441345,"apogee_km":484.74432952682,"semimajor_km":6861.1543769701,"source":"CELESTRAK","updated_at":"2026-05-25T13:38:18.608748Z"}}